[[{"header":{"parameterUnit":"m.s-1","parameterCategory":1,"la1":30.2991,"la2":30.254,"lo1":-89.0895,"lo2":-89.0444,"dy":0.0017,"dx":0.0017,"nx":28,"ny":28,"refTime":"2023-08-08T09:00:00:Z","depth":0,"parameterNumber":2,"parameterNumberName":"U-component_of_WINDS"},"data":[0,0,0,0,0,0,0,0,0,0,0,0,0,0,0,0,0,0,0,0,0,0,0,0,0,0,0,0,0,0,0,0,0,0,0,0,0,0,0,0,0,0,0,0,0,0,0,0,0,0,0,0,0,0,0,0,0,0,4.5483,4.5484,0,4.5547,4.5547,4.5548,4.5515,4.5513,4.5511,4.551,4.5573,4.5576,4.558,0,0,0,0,0,0,0,0,0,0,0,0,0,4.5328,4.5331,4.5483,4.5484,4.5485,4.5547,4.5547,4.5548,4.5515,4.5513,4.5511,4.5509,4.5572,4.5576,4.558,0,0,0,0,0,0,0,0,0,0,0,0,0,4.5394,4.5332,4.5483,4.5475,4.5475,4.5546,4.5547,4.5549,4.5516,4.5513,4.551,4.5508,4.5571,4.5576,4.558,4.5662,0,0,4.5595,4.5598,0,0,0,0,0,0,0,0,4.539,4.5399,4.5476,4.5476,4.5476,4.552,4.5516,4.5586,4.5516,4.55,4.551,4.5507,4.5558,4.5563,4.5581,4.5665,4.5667,4.5596,4.5599,4.5601,4.5602,0,0,0,0,0,0,0,4.5385,4.5396,4.5508,4.5477,4.5477,4.5467,4.5474,4.5529,4.5542,4.5501,4.5499,4.5507,4.5557,4.5576,4.5582,4.5668,4.5596,4.56,4.5603,4.5605,4.5816,4.5819,0,0,0,0,0,0,4.5382,4.5393,4.5506,4.551,4.5426,4.5472,4.548,4.5509,4.5542,4.5544,4.5509,4.5506,4.5569,4.5576,4.5584,4.5677,4.5601,4.5606,4.5608,4.5814,4.5817,4.582,0,0,0,0,0,0,4.5378,4.5392,4.5503,4.5451,4.5464,4.5478,4.5511,4.5511,4.553,4.5548,4.555,4.5527,4.5567,4.5577,4.5642,4.5679,4.5608,4.5612,4.581,4.5815,4.5818,4.5867,0,0,0,0,0,0,4.5374,4.5391,4.5424,4.5452,4.5467,4.5561,4.5513,4.5514,4.5539,4.5535,4.5564,4.5567,4.5566,4.5634,4.5646,4.5685,4.5616,4.5807,4.5812,4.5817,4.5862,4.5872,4.5881,0,0,0,0,0,4.5369,4.5436,4.5425,4.5439,4.5508,4.5564,4.5572,4.5571,4.5542,4.5574,4.5584,4.5566,4.5674,4.5641,4.5655,4.5695,4.5805,4.5811,4.5817,4.5858,4.587,4.588,0,0,0,0,0,0,4.5412,4.5439,4.5428,4.5507,4.5533,4.5558,4.5598,4.5585,4.5619,4.5614,4.5609,4.5616,4.5682,4.5695,4.5659,4.5772,4.5734,4.5743,4.5761,4.5773,4.5782,4.5776,4.562,0,0,0,0,0,4.5431,4.5474,4.5496,4.5562,4.5576,4.5585,4.5609,4.5605,4.5632,4.5643,4.5658,4.5684,4.5723,4.5749,4.5787,4.5864,4.5868,4.5898,4.5907,4.5915,4.5922,4.5959,4.5971,4.5839,4.5839,4.5839,0,0,4.5469,4.549,4.5518,4.5571,4.5592,4.5634,4.5594,4.5643,4.5674,4.565,4.571,4.5723,4.5751,4.5821,4.5853,4.5834,4.5959,4.5923,4.5929,4.5931,4.5966,4.5979,4.599,4.5843,4.5843,4.5842,0,0,4.5561,4.5583,4.5639,4.5659,4.5689,4.5694,4.5707,4.5734,4.574,4.5801,4.5782,4.5819,4.5888,4.5907,4.5926,4.6022,4.6005,4.6034,4.6082,4.6118,4.6129,4.6138,4.6168,4.6179,4.6042,4.6042,4.6042,0,4.5606,4.5671,4.5669,4.5718,4.574,4.572,4.5774,4.5794,4.5835,4.5849,4.5828,4.5911,4.5929,4.6001,4.6024,4.6042,4.6054,4.603,4.6128,4.6137,4.6145,4.6173,4.6185,4.6045,4.6044,4.6044,4.6044,0,4.5722,4.5767,4.5808,4.5847,4.5874,4.5926,4.5929,4.5956,4.5949,4.5955,4.6015,4.6036,4.6075,4.6092,4.6087,4.6162,4.6149,4.6128,4.6089,4.6161,4.6187,4.6198,4.6049,4.6048,4.6047,4.6046,0,0,4.5843,4.5878,4.5892,4.5907,4.5938,4.5972,4.6021,4.6059,4.608,4.6109,4.6147,4.6205,4.6184,4.6206,4.6202,4.6234,4.6303,4.6209,4.6209,4.6222,4.6381,4.6394,4.6407,4.6292,4.6295,4.6296,4.6378,0,4.5934,4.602,4.6017,4.6096,4.6135,4.6115,4.6157,4.6179,4.6185,4.6218,4.6225,4.6264,4.6237,4.6249,4.628,4.6288,4.6334,4.6282,4.6325,4.6327,4.6315,4.6422,4.6436,4.6512,4.6388,4.639,4.6392,0,4.6052,4.6082,4.6164,4.6185,4.6201,4.6239,4.6271,4.6304,4.6327,4.6329,4.6351,4.6342,4.6388,4.635,4.6412,4.6377,4.6394,4.64,4.6403,4.6405,4.6361,4.6422,4.6537,4.6547,4.6409,4.6407,4.6406,0,4.6126,4.6188,4.6244,4.6259,4.6285,4.6311,4.6323,4.6344,4.6365,4.6393,4.6406,4.644,4.6457,4.6482,4.648,4.6454,4.6542,4.6505,4.6542,4.6542,4.656,4.6558,4.6675,4.6577,4.6577,4.6577,4.6576,0,4.6226,4.6276,4.6277,4.6312,4.6366,4.6362,4.6415,4.6424,4.6442,4.6476,4.6462,4.6493,4.6491,4.6522,4.6521,4.657,4.658,4.658,4.6579,4.658,4.6579,4.6589,4.6582,4.658,4.6579,4.6578,4.6578,0,4.6318,4.6322,4.638,4.6399,4.6405,4.6444,4.6459,4.649,4.6495,4.6537,4.6547,4.6554,4.6589,4.6591,4.6633,4.6632,4.669,4.6685,4.6682,4.668,4.6715,4.671,4.684,4.6855,4.6751,4.6752,4.6753,0,4.638,4.6417,4.644,4.6461,4.6474,4.6509,4.653,4.6527,4.6549,4.6576,4.6603,4.6637,4.6664,4.6722,4.6729,4.676,4.6753,4.6796,4.6757,4.6755,4.6748,4.6745,4.6747,4.6803,4.6804,4.6805,4.6806,0,4.6487,4.6486,4.6517,4.6548,4.6573,4.6597,4.6619,4.6637,4.6636,4.6661,4.6697,4.6718,4.6759,4.6792,4.6821,4.6832,4.6817,4.6818,4.6827,4.6827,4.6822,4.6821,4.6698,4.6814,4.6813,4.6813,4.6812,4.6812,4.6563,4.6594,4.6613,4.6647,4.6663,4.6683,4.6711,4.6718,4.6748,4.6781,4.6777,4.6816,4.6835,4.6872,4.6885,4.6914,4.6899,4.6914,4.6917,4.692,4.6922,4.682,4.692,4.692,4.6919,4.6919,4.6919,0,4.6666,4.6677,4.6708,4.6738,4.6764,4.6749,4.6772,4.6793,4.6828,4.6847,4.6872,4.6912,4.6943,4.6952,4.6981,4.7002,4.6996,4.701,4.7007,4.7008,4.6936,4.6922,4.7014,4.7014,4.7014,4.7014,4.7014,4.7014,4.6723,4.6772,4.6773,4.6828,4.6839,4.6876,4.689,4.6907,4.6921,4.6965,4.6991,4.6997,4.701,4.704,4.7067,4.7068,4.7078,4.7094,4.7093,4.7024,4.7014,4.7005,4.6992,4.7097,4.7097,4.7162,4.7163,4.7163]},{"header":{"parameterUnit":"m.s-1","parameterCategory":1,"la1":30.2991,"la2":30.254,"lo1":-89.0895,"lo2":-89.0444,"dy":0.0017,"dx":0.0017,"nx":28,"ny":28,"refTime":"2023-08-08T09:00:00:Z","depth":0,"parameterNumber":3,"parameterNumberName":"V-component_of_WINDS"},"data":[0,0,0,0,0,0,0,0,0,0,0,0,0,0,0,0,0,0,0,0,0,0,0,0,0,0,0,0,0,0,0,0,0,0,0,0,0,0,0,0,0,0,0,0,0,0,0,0,0,0,0,0,0,0,0,0,0,0,6.7426,6.7428,0,6.7596,6.7598,6.76,6.7574,6.7571,6.7569,6.7566,6.7735,6.7742,6.7749,0,0,0,0,0,0,0,0,0,0,0,0,0,6.707,6.7077,6.7426,6.7428,6.743,6.7596,6.7598,6.7601,6.7575,6.7571,6.7568,6.7565,6.7733,6.7741,6.775,0,0,0,0,0,0,0,0,0,0,0,0,0,6.7231,6.7079,6.7425,6.7437,6.744,6.7595,6.7598,6.7601,6.7576,6.7571,6.7567,6.7563,6.773,6.774,6.7751,6.7904,0,0,6.7784,6.7789,0,0,0,0,0,0,0,0,6.7222,6.7244,6.7433,6.7437,6.744,6.756,6.7535,6.7703,6.7577,6.7524,6.7566,6.7561,6.768,6.7694,6.7736,6.7912,6.7919,6.7785,6.7791,6.7796,6.7799,0,0,0,0,0,0,0,6.7211,6.7237,6.7493,6.7436,6.744,6.7432,6.745,6.7567,6.7624,6.7528,6.7527,6.7548,6.7681,6.7725,6.774,6.7922,6.7785,6.7794,6.7801,6.7805,6.8228,6.8232,0,0,0,0,0,0,6.7197,6.7228,6.7487,6.7498,6.7318,6.7442,6.7462,6.7526,6.7623,6.7633,6.7551,6.7546,6.7709,6.7727,6.7745,6.7929,6.7796,6.7806,6.7812,6.8223,6.8229,6.8234,0,0,0,0,0,0,6.719,6.7221,6.7481,6.7363,6.7395,6.7452,6.7524,6.7531,6.7576,6.764,6.7649,6.7587,6.7707,6.773,6.7864,6.7934,6.7811,6.7821,6.8217,6.8225,6.8231,6.8298,0,0,0,0,0,0,6.718,6.7218,6.7279,6.7364,6.7401,6.7599,6.7529,6.7538,6.7595,6.759,6.7676,6.7686,6.7705,6.7848,6.7875,6.7947,6.7829,6.8211,6.8221,6.8229,6.8289,6.8306,6.832,0,0,0,0,0,6.7167,6.729,6.7282,6.7314,6.7479,6.7603,6.7624,6.7645,6.7601,6.7661,6.7701,6.7683,6.7922,6.7862,6.7892,6.7968,6.8207,6.8218,6.8228,6.8282,6.8303,6.832,0,0,0,0,0,0,6.7211,6.7302,6.7294,6.7449,6.7519,6.7599,6.7675,6.7667,6.7749,6.7741,6.7762,6.7781,6.7916,6.7956,6.7887,6.8119,6.8058,6.8075,6.8089,6.8109,6.8124,6.8111,6.7838,0,0,0,0,0,6.7238,6.7334,6.7408,6.7537,6.7573,6.7618,6.7673,6.7683,6.7756,6.7785,6.7835,6.7905,6.7995,6.8054,6.8141,6.8295,6.8311,6.8361,6.8377,6.8389,6.8404,6.8485,6.8507,6.8269,6.8269,6.8269,0,0,6.7296,6.7358,6.7417,6.7547,6.7603,6.7698,6.7643,6.7748,6.7818,6.78,6.793,6.7969,6.8047,6.8191,6.8257,6.8228,6.8473,6.8403,6.8412,6.842,6.8498,6.852,6.854,6.8276,6.8275,6.8274,0,0,6.7451,6.7508,6.7621,6.7678,6.7762,6.7791,6.7818,6.79,6.7926,6.8056,6.8044,6.8127,6.8283,6.8339,6.8387,6.856,6.8545,6.8588,6.8668,6.8747,6.8766,6.8783,6.8842,6.8863,6.8602,6.8602,6.8602,0,6.7512,6.7658,6.768,6.7786,6.7842,6.7831,6.7943,6.7996,6.8104,6.8142,6.8109,6.8303,6.8355,6.851,6.8552,6.8593,6.8622,6.8578,6.8762,6.8779,6.8795,6.8851,6.8874,6.8607,6.8606,6.8606,6.8605,0,6.7727,6.7829,6.7909,6.8015,6.8081,6.8189,6.8225,6.8288,6.8291,6.8323,6.8454,6.8516,6.8614,6.8652,6.8657,6.8807,6.8786,6.8757,6.8696,6.8821,6.8875,6.8897,6.8613,6.8611,6.861,6.8609,0,0,6.7915,6.803,6.8059,6.8106,6.8198,6.8275,6.8382,6.8479,6.8531,6.8606,6.8694,6.8825,6.8798,6.8853,6.8864,6.8933,6.9063,6.8895,6.8897,6.8922,6.9229,6.925,6.9275,6.9054,6.9058,6.9061,6.9222,0,6.8077,6.8268,6.8289,6.8458,6.855,6.8539,6.8631,6.8696,6.8728,6.8808,6.8842,6.8935,6.8893,6.8926,6.8994,6.9033,6.9124,6.9021,6.9133,6.9137,6.9113,6.9303,6.9326,6.9475,6.9243,6.9247,6.925,0,6.8292,6.8373,6.8551,6.8628,6.8667,6.875,6.8839,6.8918,6.8989,6.9007,6.9068,6.9069,6.9175,6.911,6.9256,6.9185,6.9232,6.9257,6.9263,6.9274,6.92,6.9317,6.9523,6.9545,6.9283,6.9281,6.9278,0,6.8408,6.8562,6.8688,6.8728,6.8821,6.8879,6.892,6.8988,6.9044,6.9121,6.9157,6.9246,6.9293,6.936,6.9383,6.9335,6.9527,6.9465,6.9543,6.9542,6.9583,6.958,6.9798,6.9616,6.9615,6.9615,6.9614,0,6.8586,6.8695,6.8741,6.8818,6.8939,6.8961,6.9078,6.9116,6.9176,6.9258,6.9254,6.9331,6.9358,6.9438,6.9457,6.9573,6.9595,6.961,6.9614,6.961,6.9608,6.964,6.963,6.9621,6.962,6.9618,6.9617,0,6.8736,6.8772,6.8908,6.8985,6.9006,6.9091,6.9156,6.9229,6.9259,6.9363,6.9388,6.9435,6.9529,6.9559,6.9672,6.9684,6.982,6.9815,6.9796,6.9796,6.9872,6.9863,7.0117,7.015,6.9947,6.9949,6.9951,0,6.8847,6.893,6.9016,6.9071,6.9115,6.9204,6.9262,6.9285,6.9345,6.9431,6.9493,6.9587,6.9663,6.9813,6.9856,6.9942,6.9938,7.002,6.995,6.9943,6.9936,6.9931,6.9938,7.0033,7.0035,7.0037,7.0039,0,6.9038,6.9051,6.9135,6.9225,6.9293,6.9365,6.9433,6.9478,6.9511,6.9578,6.9675,6.9734,6.985,6.9942,7.0029,7.0068,7.0058,7.006,7.0082,7.0079,7.0064,7.0071,6.983,7.0054,7.0053,7.0051,7.0051,7.005,6.9171,6.9244,6.9315,6.9407,6.9461,6.9525,6.9597,6.9636,6.9718,6.9815,6.9823,6.9927,6.9993,7.011,7.0153,7.0233,7.0209,7.0242,7.025,7.0257,7.0262,7.0053,7.0249,7.0249,7.0248,7.0248,7.0248,0,6.9361,6.9405,6.9491,6.9587,6.9659,6.9645,6.9719,6.978,6.9872,6.9936,7.001,7.012,7.0209,7.0258,7.0345,7.04,7.0397,7.0422,7.0417,7.0426,7.028,7.0251,7.0422,7.0422,7.0422,7.0422,7.0422,7.0422,6.9468,6.9589,6.961,6.9757,6.9801,6.9904,6.9947,7.0005,7.0056,7.0179,7.0253,7.0285,7.0342,7.0433,7.0513,7.0524,7.0556,7.0583,7.0592,7.0454,7.0436,7.0419,7.0392,7.059,7.059,7.0731,7.0732,7.0733]}]]